Wind_Speed
52 53 53 54 55 55 56 56 56 56 57 57 56 56 55 54 54 53 51 50 50 49 48 46 45 43 42 41 40 39 38 38 37 36 35 35 34 34 34 34 34 34 34 34 34 34 34 34 34 34 35 35 35 36 36 36 37 37 37 37 37 37 37 37 37 37 37 38 38 38 39 39 39 39 39 39 39 38 38 38 38 38 37 37 37 37
53 54 54 55 55 56 56 57 56 56 56 56 56 55 54 53 52 51 50 49 48 47 45 44 43 42 41 39 38 37 36 35 34 33 33 32 32 32 32 32 32 32 32 32 33 33 33 33 34 34 34 35 35 36 36 37 37 37 37 37 37 37 37 37 38 38 38 38 38 39 39 39 39 38 38 38 38 38 38 38 38 37 37 37 37 37
54 55 55 55 56 56 56 57 56 56 55 55 55 54 53 52 51 50 48 47 46 45 44 42 41 40 39 38 36 35 34 33 32 31 31 30 30 30 30 31 31 31 32 32 32 33 33 33 34 34 35 36 36 37 37 38 38 38 38 38 38 38 38 38 38 38 39 39 39 39 39 39 38 38 38 38 38 38 38 38 38 37 37 37 36 36
54 55 56 56 56 56 56 56 56 55 55 54 53 53 51 50 49 48 47 45 44 43 42 41 39 38 37 36 34 33 31 31 30 30 29 29 30 30 30 30 31 31 32 32 33 33 34 34 35 35 36 36 37 38 38 38 39 39 39 39 39 39 39 39 39 39 39 39 39 39 39 39 39 39 39 39 39 38 38 38 37 37 36 36 35 35
55 55 56 56 56 56 56 55 55 54 54 53 52 51 50 49 48 46 45 44 42 41 40 39 38 37 35 34 32 31 30 29 29 29 29 29 30 30 30 31 31 32 32 33 33 33 34 34 35 35 36 36 37 37 38 38 39 39 39 39 39 39 39 40 40 40 40 40 40 40 39 39 39 39 39 39 39 39 38 37 37 36 36 35 34 34
55 55 55 56 55 55 55 54 53 53 52 51 50 49 48 47 46 45 43 42 41 40 39 37 36 35 33 32 31 29 28 28 28 29 29 29 30 30 31 31 31 32 32 32 32 33 33 33 34 34 35 35 36 36 37 37 38 38 38 39 39 39 40 40 40 41 41 41 40 40 40 40 40 40 40 40 39 39 38 37 36 35 35 34 34 33
55 55 55 55 55 54 53 53 52 51 50 50 49 48 47 45 44 43 42 41 40 39 37 36 34 33 31 30 29 28 28 28 28 29 29 30 30 30 30 31 31 31 31 31 31 31 31 32 32 33 34 34 35 35 36 36 37 37 38 38 39 39 40 41 41 41 41 41 41 41 40 40 40 40 40 40 39 39 38 37 36 35 34 34 34 34
54 54 54 53 53 53 53 51 50 49 48 48 47 46 45 44 42 41 40 39 38 37 36 35 33 31 29 28 28 28 28 29 29 29 30 30 30 30 30 30 30 30 30 30 30 30 30 30 31 32 32 33 34 34 35 35 36 36 37 38 39 39 40 41 41 42 41 41 41 41 41 40 40 40 40 39 39 38 37 36 35 35 34 34 34 34
53 53 53 53 52 51 51 51 49 47 46 46 45 44 44 43 42 41 39 37 36 35 34 34 32 31 29 27 27 27 28 29 30 30 30 30 30 30 29 29 29 29 29 29 28 28 29 29 30 31 32 32 33 33 34 34 35 36 36 37 38 39 40 41 41 41 41 41 41 40 40 40 40 40 39 39 38 37 36 36 35 35 34 34 34 35
53 53 52 52 51 50 49 49 48 47 45 44 44 43 42 41 41 40 39 37 35 33 32 32 31 30 29 28 27 27 28 30 31 31 31 30 30 30 29 29 29 29 28 28 27 27 28 28 29 30 31 31 32 33 33 34 34 35 35 37 38 39 40 40 40 41 40 40 40 40 40 39 39 39 38 38 37 36 36 35 35 35 35 34 34 34
53 52 52 51 51 50 48 47 46 45 44 43 43 42 41 40 39 39 38 37 35 33 31 31 30 29 29 29 29 29 29 30 31 31 31 30 29 29 29 28 28 28 28 27 27 26 27 28 29 29 30 31 31 32 32 33 33 34 35 36 37 38 39 39 40 40 39 39 39 39 39 38 38 37 37 36 36 35 35 35 35 34 34 34 33 33
52 52 51 50 49 48 47 46 45 44 43 42 42 42 41 40 38 37 37 36 35 33 32 31 30 29 29 30 30 31 31 32 32 32 31 30 29 28 28 28 28 27 27 27 26 26 26 27 28 28 29 30 30 31 31 32 32 33 34 35 36 37 38 38 39 39 38 38 38 38 37 37 37 36 35 35 35 35 35 34 34 33 33 32 31 30
51 50 50 49 48 46 45 44 43 43 42 41 40 40 40 39 38 36 36 35 34 32 32 32 31 30 30 30 31 32 33 33 34 33 32 31 30 29 29 29 28 28 27 26 26 25 25 26 27 27 28 28 29 29 30 31 31 32 33 34 35 36 37 38 38 38 38 37 37 37 36 36 35 35 34 34 34 34 34 33 32 31 30 29 28 27
50 49 48 47 46 45 43 43 42 41 41 40 39 39 39 38 37 35 35 34 33 32 32 32 32 31 31 30 31 32 33 34 34 34 33 32 31 30 30 30 29 28 27 27 26 25 25 26 26 26 26 27 27 28 29 29 30 31 32 33 34 35 37 37 38 37 37 36 36 36 35 35 34 34 33 33 33 33 32 31 30 29 27 26 25 25
48 47 46 45 44 43 42 41 41 40 40 39 38 38 37 37 36 35 34 34 33 33 32 32 32 32 31 31 31 32 34 35 36 35 34 33 31 30 30 30 30 28 27 26 25 25 24 25 25 25 25 25 26 27 28 28 29 30 31 32 33 34 36 37 37 37 36 36 35 34 34 33 33 32 32 32 31 30 29 28 27 26 25 24 23 23
46 45 44 43 43 42 41 40 39 39 38 38 37 37 36 36 35 34 34 34 34 33 33 33 33 33 32 31 31 32 34 36 37 37 36 34 32 31 31 31 30 29 27 26 25 24 24 24 24 24 25 25 25 26 27 28 28 29 30 31 32 34 35 36 36 36 36 35 34 33 32 31 31 31 30 30 29 28 27 26 25 24 23 23 22 22
45 44 43 42 41 41 40 39 38 38 37 37 36 36 35 35 34 34 34 34 34 34 33 34 34 34 34 33 32 32 34 36 38 38 37 36 34 32 31 31 31 30 28 26 25 24 24 24 24 24 24 24 25 25 26 27 28 29 29 30 31 33 34 35 36 36 35 34 33 31 30 30 29 29 29 28 27 26 25 25 24 23 23 23 22 22
44 42 42 41 40 40 39 38 37 37 36 36 35 35 35 34 34 34 34 34 34 34 34 34 34 35 36 36 34 34 35 37 38 39 38 37 35 33 32 32 31 30 28 26 25 25 25 24 24 24 24 24 24 25 26 26 27 28 29 30 30 32 33 34 35 35 35 34 32 30 29 28 28 27 27 26 26 25 24 24 24 23 23 23 23 23
42 41 40 39 39 39 38 36 35 35 35 35 35 35 34 34 34 33 33 33 33 34 34 34 35 36 36 37 36 35 36 37 39 40 39 38 36 34 32 32 32 31 29 27 26 25 25 25 24 23 23 23 23 24 24 25 26 27 28 29 30 31 32 33 34 35 35 33 32 30 28 27 26 26 26 26 25 25 24 24 24 23 23 23 23 23
41 40 38 38 38 38 37 35 34 33 33 34 34 34 34 34 34 34 33 33 33 34 34 35 35 36 37 37 37 36 37 38 39 40 39 38 36 34 33 33 33 31 29 28 27 26 26 25 24 23 22 22 22 22 23 24 25 26 27 28 29 30 32 33 34 34 34 33 32 30 28 27 26 26 26 25 25 25 24 24 24 24 24 23 23 23
40 39 37 36 36 36 35 34 33 32 32 33 34 34 34 34 34 34 33 33 34 34 34 35 35 36 37 38 37 37 37 38 39 40 40 38 36 34 33 33 33 32 30 28 28 27 27 26 24 23 22 21 21 21 22 22 23 25 26 27 29 30 31 33 34 34 34 34 32 31 29 27 26 26 26 26 26 25 25 24 24 24 24 24 24 24
38 37 36 35 34 34 34 33 32 31 31 32 33 34 34 35 35 35 34 34 34 34 35 35 36 36 37 38 37 37 36 37 38 39 39 38 36 34 33 33 33 32 31 30 29 28 28 26 25 23 21 21 20 20 21 22 22 23 25 26 28 30 31 32 33 34 34 34 33 32 30 28 27 26 26 26 26 26 25 25 25 25 25 24 24 24
35 35 34 33 33 32 32 32 31 31 31 32 33 33 34 35 35 35 34 34 34 35 35 36 36 37 37 37 37 36 36 36 37 38 38 38 36 34 33 33 33 33 31 31 30 29 28 27 25 23 22 21 20 20 21 21 22 23 24 25 27 29 31 32 33 34 34 34 34 33 31 30 28 27 27 27 26 26 26 26 26 26 25 25 25 25
34 33 32 32 31 31 31 31 31 31 31 32 33 33 34 34 34 34 34 34 35 35 36 37 37 37 37 37 37 36 35 35 36 37 37 37 36 34 33 33 33 33 32 31 31 30 29 27 26 24 23 22 21 21 21 21 22 22 23 25 26 28 30 31 32 33 34 34 34 33 32 31 30 28 28 27 27 27 27 27 27 26 26 26 26 26
32 32 31 31 31 30 31 31 31 31 31 32 33 34 34 34 34 33 33 34 34 35 36 37 37 37 38 38 38 37 35 34 34 35 36 36 36 34 33 33 34 34 33 31 31 31 30 28 27 25 24 23 23 22 22 22 22 22 23 24 25 26 28 30 31 32 33 34 34 34 33 32 31 30 29 28 28 28 28 28 28 27 27 27 27 27
31 30 30 30 30 30 30 30 30 31 31 32 32 33 34 34 33 33 32 32 33 35 36 37 38 38 38 39 38 37 36 34 33 33 34 35 35 34 33 33 34 34 34 32 31 31 31 30 28 27 26 25 24 24 23 22 22 22 22 23 24 25 26 28 30 31 33 34 34 34 34 33 32 31 30 29 29 29 29 29 28 28 28 28 29 29
29 29 29 29 29 30 30 30 30 30 30 31 31 32 33 33 33 33 32 32 34 35 36 38 39 39 39 39 39 38 35 33 31 31 33 34 35 34 33 33 34 34 34 33 32 32 32 31 30 29 28 27 26 25 24 23 23 23 22 22 23 23 24 26 28 30 32 33 33 34 34 33 32 32 31 30 30 30 29 29 29 30 30 30 30 30
28 28 28 28 29 29 29 30 30 29 30 30 30 31 32 33 33 33 33 34 34 36 36 38 39 40 40 40 39 37 34 31 30 30 32 33 34 34 34 34 34 35 35 35 34 33 33 32 32 31 30 29 28 27 26 25 24 23 23 22 22 22 23 24 26 28 30 32 32 33 33 33 33 32 32 31 31 31 30 30 30 31 31 31 32 32
27 27 27 28 28 29 29 29 29 29 29 29 29 30 31 32 32 33 33 34 35 36 36 37 38 39 40 40 39 36 32 29 28 30 32 33 34 34 34 34 34 35 36 36 36 35 34 33 33 33 32 31 30 29 27 26 25 24 23 22 21 21 21 22 24 26 28 29 31 32 32 32 33 33 32 32 32 31 31 31 31 32 32 33 33 33
25 26 26 27 27 28 28 28 28 28 28 28 28 29 30 31 32 32 33 34 35 35 36 37 38 39 39 39 38 35 31 28 27 29 31 33 34 34 34 34 34 34 36 37 38 38 36 35 34 34 34 33 32 30 29 27 26 25 24 22 21 21 21 21 22 24 25 27 28 30 31 31 32 32 33 33 33 32 32 32 33 33 34 34 34 34
25 25 25 26 26 27 27 27 27 27 26 27 27 28 29 30 31 32 32 33 34 35 36 36 37 38 38 38 37 35 31 28 27 29 31 33 34 34 35 35 35 35 35 37 39 41 40 38 36 35 35 35 34 32 30 28 27 26 25 24 23 22 21 21 21 22 23 25 26 28 29 30 31 32 32 33 33 33 33 33 33 34 35 35 36 36
26 26 26 26 26 26 26 26 26 25 25 26 26 27 28 29 30 31 31 32 33 34 35 36 36 36 36 36 35 34 31 29 28 28 30 32 34 34 35 35 36 35 35 36 38 41 43 42 40 38 37 37 35 33 31 30 29 28 28 26 25 24 23 22 22 22 22 23 24 25 27 28 30 31 32 33 33 33 33 34 34 35 36 36 37 37
26 26 26 26 25 25 25 25 25 25 25 26 26 27 28 28 29 30 30 31 32 33 34 35 35 35 35 34 33 32 30 29 28 28 30 32 34 35 35 36 36 36 36 37 38 39 42 43 43 41 40 38 37 35 34 32 31 31 30 29 28 26 24 23 23 22 22 22 23 24 25 26 28 30 31 32 33 33 34 34 35 35 36 37 38 39
27 26 26 26 25 24 24 24 24 25 25 26 26 27 27 28 28 29 30 31 31 32 33 33 34 34 33 33 32 31 29 28 27 28 29 31 33 34 35 36 36 37 38 38 39 40 41 42 43 43 42 40 38 37 36 35 34 32 31 30 29 28 26 25 24 23 22 22 22 22 23 25 27 28 29 31 32 32 33 34 35 35 36 38 39 40
26 26 25 25 24 24 23 24 24 25 25 26 26 27 27 27 28 28 29 30 31 32 32 32 32 32 32 32 32 31 29 28 27 27 28 30 32 34 35 36 36 37 38 39 40 41 42 42 43 43 44 43 41 39 38 37 36 34 32 31 30 29 28 26 25 24 23 22 22 22 22 24 25 27 28 29 30 31 32 33 34 35 36 37 39 40
26 25 25 24 24 24 23 24 24 25 25 26 26 26 27 27 28 28 29 29 30 30 30 30 30 30 30 30 30 30 29 28 27 27 27 29 31 33 35 36 36 37 38 39 40 41 42 43 43 43 44 44 44 42 39 38 37 35 34 32 30 29 27 26 25 24 24 23 22 22 22 23 24 25 26 27 29 30 31 32 33 34 35 37 38 39
25 24 24 24 24 24 24 24 24 25 25 26 26 26 26 27 27 28 28 29 29 29 29 29 28 28 28 28 28 28 28 28 27 27 27 28 30 32 34 35 36 36 37 39 40 41 42 43 44 44 44 44 44 44 42 40 38 37 34 32 30 29 27 25 25 24 24 23 23 22 22 22 23 24 25 26 27 29 30 31 32 33 34 36 37 38
24 24 24 24 24 24 24 25 25 25 25 26 26 26 26 27 27 28 28 28 27 27 27 27 27 26 26 26 26 26 26 27 27 27 27 28 30 32 33 35 36 36 37 38 40 41 42 43 44 44 44 44 44 43 43 42 40 38 35 33 31 29 27 25 25 24 24 24 23 22 22 22 22 23 24 25 26 27 28 29 30 31 33 34 36 37
24 23 23 24 24 24 25 25 25 25 26 26 26 26 27 27 27 27 26 26 26 26 26 26 26 26 25 24 24 24 25 25 26 26 27 28 29 31 33 35 36 36 37 38 39 40 41 42 43 44 44 44 44 43 42 41 39 38 36 34 31 29 27 25 24 24 24 24 23 23 22 21 22 22 23 23 24 25 26 27 28 30 31 32 34 34
23 23 23 24 24 25 25 25 26 26 26 26 26 26 26 26 26 25 25 24 24 25 25 26 26 25 24 23 23 23 23 24 25 26 27 28 29 31 32 34 36 37 37 38 38 39 40 41 42 42 43 44 44 43 42 40 38 36 35 34 32 30 27 25 24 24 24 24 23 23 22 22 22 22 22 23 24 24 25 26 27 28 29 31 31 32
23 23 23 24 24 24 25 25 26 26 26 26 26 26 25 25 25 24 24 23 24 24 25 26 26 25 24 23 22 22 22 23 24 26 27 28 29 30 32 34 35 36 37 38 38 38 39 40 41 41 41 42 42 42 41 39 36 34 33 33 32 31 29 26 25 24 24 24 23 23 23 23 23 23 23 23 23 24 25 26 26 27 28 29 30 30
23 23 24 24 24 24 25 25 25 25 25 25 25 24 24 25 25 24 24 24 24 25 25 26 26 26 24 23 22 22 22 23 24 25 27 28 29 31 32 33 35 36 37 38 38 38 38 39 39 40 40 40 41 41 40 37 35 32 31 30 31 31 29 27 24 23 24 24 24 23 23 23 23 23 23 23 23 23 24 25 26 26 27 27 28 29
23 24 24 24 24 24 24 24 24 24 24 23 23 23 23 24 24 25 25 25 25 26 26 27 27 27 26 25 24 24 23 24 25 26 27 29 30 31 32 33 34 35 36 37 38 38 38 38 38 39 39 39 39 39 38 36 33 31 28 28 28 29 29 27 25 24 23 23 23 23 23 23 23 23 23 23 23 23 23 24 24 25 26 26 27 28
23 23 23 24 24 24 24 24 23 22 22 21 21 21 22 23 24 25 26 26 27 27 27 28 28 28 28 28 28 27 27 26 26 27 28 29 30 31 32 33 34 34 35 36 37 38 38 38 38 37 37 37 37 36 35 34 32 29 27 26 26 27 28 27 26 25 24 23 22 22 22 22 23 23 23 22 22 22 23 23 23 24 24 25 26 27
23 23 23 23 23 23 23 22 22 21 21 20 20 21 22 23 24 25 26 27 27 28 28 29 30 30 30 30 30 30 30 29 29 29 29 29 30 31 32 32 33 34 34 35 36 37 37 38 37 37 36 35 34 33 32 31 30 28 26 25 24 25 25 25 25 24 24 23 22 22 22 22 23 23 22 22 22 22 22 22 22 23 23 24 25 26
23 23 23 23 23 22 22 21 21 20 20 20 20 21 22 23 24 25 26 27 28 29 29 30 31 32 33 33 33 33 33 32 32 31 31 30 31 31 31 32 32 33 34 34 35 36 36 36 36 35 34 33 32 30 29 28 27 27 26 25 24 24 23 23 23 23 23 23 23 22 22 23 23 23 23 22 22 21 21 21 21 21 22 23 24 25
22 22 22 22 21 21 20 20 20 19 19 19 20 21 22 23 24 25 27 28 29 30 31 31 32 33 34 34 35 35 35 35 35 34 33 33 32 32 32 32 33 33 33 34 34 35 35 34 34 33 32 31 30 29 26 25 24 24 25 25 24 24 24 23 23 23 23 24 24 24 24 24 25 24 24 23 22 21 20 20 20 21 22 23 24 25
21 21 21 21 20 20 19 19 19 20 20 20 20 21 22 24 25 26 28 29 30 31 32 33 34 34 35 35 35 36 36 37 37 36 36 35 34 34 33 33 33 34 34 34 34 34 33 32 30 29 28 29 29 28 26 23 22 23 24 25 25 26 26 25 24 25 25 26 26 26 26 26 27 26 26 25 23 22 20 19 20 20 22 23 25 26
21 21 21 20 20 20 20 19 20 20 21 22 22 22 23 24 26 27 29 30 31 32 33 34 35 35 36 36 36 36 37 37 37 37 37 36 36 35 35 35 35 35 35 34 34 33 31 29 27 25 25 26 27 28 26 24 24 24 25 26 27 28 28 28 27 27 28 28 28 27 27 27 27 27 27 27 25 23 21 20 20 20 21 23 25 26
20 20 20 20 20 20 20 20 21 22 23 23 24 24 25 25 26 28 29 31 32 33 34 35 36 36 37 37 37 37 37 37 37 37 36 36 36 36 36 36 36 36 36 36 34 33 31 29 25 22 20 22 25 28 28 28 28 28 28 29 29 30 30 30 30 30 30 30 30 29 29 28 28 28 28 28 27 25 23 21 20 20 21 22 24 25
20 20 20 20 20 20 21 21 22 23 24 25 25 26 26 27 28 29 30 31 33 34 34 35 36 36 37 37 37 37 37 37 37 37 36 36 36 36 36 36 37 37 37 36 35 34 32 30 27 22 18 19 22 26 29 30 31 32 31 31 30 30 31 31 31 31 31 31 31 30 30 29 29 29 28 29 28 27 25 23 21 20 20 21 23 24
Wind_Direction
311 311 311 311 310 310 310 310 309 309 309 308 308 308 307 307 306 305 305 304 303 302 302 302 301 301 301 300 299 298 297 297 296 295 294 293 291 290 288 288 287 287 287 286 286 286 286 285 285 284 283 282 281 280 280 279 279 279 279 279 279 278 278 278 277 276 276 275 274 273 273 273 273 273 273 273 274 274 274 274 273 273 271 270 268 266
311 311 311 311 310 310 310 310 310 309 309 309 308 308 307 307 306 305 304 304 303 302 302 302 302 302 301 300 300 299 299 298 297 295 294 292 290 289 288 288 287 288 288 287 287 287 286 286 285 284 283 282 282 281 281 280 280 280 280 280 279 279 278 278 277 276 275 275 274 273 273 273 274 274 275 275 276 276 276 276 276 275 274 273 271 269
311 311 311 311 310 310 310 310 309 309 309 309 308 308 307 307 306 305 304 303 303 303 302 302 302 302 302 302 301 301 300 298 297 295 293 292 291 290 290 290 290 290 290 290 290 289 288 287 287 286 285 284 284 283 283 282 282 281 281 280 280 279 279 278 277 276 276 275 275 274 274 274 275 276 276 277 278 278 278 278 278 277 276 274 273 271
311 311 311 310 310 310 310 310 309 309 309 308 308 308 307 306 305 305 304 303 303 303 303 303 303 303 303 303 302 302 300 299 297 295 294 293 293 293 293 293 294 293 293 293 292 291 290 289 288 287 286 285 285 284 283 283 282 282 281 280 280 279 279 278 277 277 276 276 275 275 275 276 276 277 278 278 279 279 279 279 278 277 276 275 273 271
311 311 310 310 310 309 309 309 309 309 309 308 308 307 307 306 305 305 304 304 304 304 304 304 305 305 304 304 303 302 301 299 298 297 296 296 296 297 297 297 297 296 295 294 293 292 291 290 289 287 286 285 284 284 283 282 282 281 280 280 279 279 278 277 277 276 276 276 276 276 276 277 278 278 279 279 280 280 279 278 278 277 275 274 273 271
311 310 310 309 309 309 309 309 309 309 308 308 307 307 306 305 305 305 305 305 305 305 306 306 306 306 305 305 304 303 302 300 299 299 299 299 299 299 299 299 298 297 296 295 294 293 292 290 289 287 286 285 284 283 282 281 281 280 279 278 278 277 277 276 276 276 276 276 276 276 277 277 278 279 279 279 279 279 278 278 276 275 274 273 272 271
310 310 309 309 308 308 309 309 309 309 308 308 307 306 306 305 305 305 306 306 307 307 307 307 306 306 306 305 305 304 303 301 300 300 300 300 300 301 300 300 298 297 296 295 294 293 292 291 290 288 287 285 284 283 282 281 280 279 278 278 277 276 275 275 275 275 275 275 276 276 277 277 277 278 278 278 278 278 277 276 275 274 273 272 271 270
309 308 308 308 308 308 309 309 309 309 308 308 307 306 306 306 306 307 307 308 308 309 309 308 307 306 306 306 306 305 304 303 301 301 301 301 302 302 301 300 299 298 297 296 296 295 294 293 291 290 288 287 286 285 283 282 281 280 279 278 276 276 275 274 274 274 274 275 275 275 276 276 276 276 276 277 277 276 276 275 274 273 272 272 271 270
308 308 307 307 308 308 309 309 309 309 309 308 307 307 307 307 308 308 308 309 309 310 309 308 308 307 308 308 307 306 305 304 303 303 303 303 304 304 302 301 299 298 298 297 297 297 296 294 292 291 290 289 288 287 285 284 283 282 280 279 277 276 276 275 275 274 274 274 275 275 275 275 275 275 275 275 275 275 275 274 273 272 272 271 270 270
308 308 308 308 308 309 310 310 310 310 310 309 309 309 309 309 309 310 310 310 310 310 309 308 308 309 309 309 309 307 306 305 305 305 305 305 306 305 304 302 301 300 299 299 299 298 297 295 294 292 291 290 289 288 287 286 285 283 282 280 279 278 277 276 276 275 275 275 275 274 274 274 274 274 274 274 274 274 273 273 272 272 271 271 270 270
308 308 309 309 310 311 311 311 311 311 311 311 310 310 310 310 310 311 311 311 311 311 310 309 309 310 311 311 311 310 309 307 306 305 306 306 307 306 305 303 302 302 302 301 301 300 299 297 295 293 292 291 291 290 289 288 286 285 283 282 281 280 279 278 277 277 276 276 275 274 274 274 274 274 274 274 273 273 272 272 272 271 271 271 270 269
309 309 310 311 311 312 312 312 312 312 311 311 311 311 311 311 311 311 311 312 312 313 312 311 311 312 313 314 314 313 311 309 308 307 307 308 309 308 307 305 304 303 303 303 303 302 300 298 296 295 294 293 292 291 290 289 287 286 284 283 282 281 280 279 278 278 277 276 276 275 275 274 274 274 274 273 272 272 272 271 271 271 271 270 269 268
310 310 311 312 313 313 313 312 312 312 311 311 311 310 310 311 312 312 312 312 313 314 313 313 313 314 315 315 315 315 313 312 310 310 310 312 313 312 310 308 306 305 305 304 304 303 302 299 298 297 296 295 294 293 291 289 287 286 284 283 282 281 280 279 279 278 277 277 276 276 275 275 275 274 273 272 272 271 271 271 270 270 269 267 266 265
311 311 312 312 313 313 312 312 311 311 311 311 311 310 310 311 312 312 312 312 313 314 314 314 314 315 316 316 317 317 316 314 313 313 313 315 316 316 313 310 309 308 307 307 306 305 303 301 300 299 298 297 296 293 291 289 287 284 283 281 280 280 279 279 278 278 278 277 277 276 275 275 274 273 272 271 270 270 269 269 267 266 265 264 262 261
311 311 312 312 312 312 312 312 311 311 311 311 310 310 310 311 312 312 312 313 314 315 315 315 315 315 315 317 319 320 319 317 316 315 315 316 317 317 314 311 309 308 308 307 307 306 304 303 302 302 301 299 297 294 291 288 285 283 281 279 279 278 278 278 278 278 277 277 276 275 275 274 273 272 270 269 268 267 266 265 263 262 260 259 258 258
311 312 312 312 312 312 312 312 311 311 311 311 310 310 311 311 312 313 313 314 315 316 316 315 315 314 315 318 321 323 322 320 318 317 316 316 317 317 315 312 310 309 308 308 307 306 304 303 303 304 304 302 299 295 291 288 284 282 279 278 278 277 278 278 278 278 278 277 276 275 274 273 271 270 268 267 265 264 262 260 258 257 256 255 254 254
311 312 312 312 312 312 311 311 311 311 311 310 310 310 310 311 312 313 313 314 315 315 315 315 315 315 316 319 323 326 324 321 318 317 317 316 317 317 315 313 310 309 308 307 307 306 304 304 305 306 307 305 302 298 293 289 285 281 279 277 277 277 278 278 279 279 279 278 277 276 274 272 270 267 265 263 261 259 257 255 254 252 252 252 252 252
311 312 312 312 312 311 311 311 311 311 310 310 309 310 310 311 312 312 313 314 315 315 315 316 316 317 318 321 325 328 325 322 319 318 317 316 317 317 315 313 310 308 308 307 307 306 305 305 307 310 310 309 305 301 295 290 286 282 279 277 276 277 277 278 279 280 280 280 279 277 275 272 269 265 262 260 257 255 253 252 251 250 250 250 250 251
311 312 312 312 311 311 310 311 311 310 310 309 309 309 310 311 311 312 313 314 315 316 316 317 318 319 320 322 325 327 325 322 320 318 317 316 316 316 315 312 310 308 307 308 308 307 306 307 309 312 312 310 307 302 296 291 286 282 279 277 276 276 277 278 279 280 281 281 280 279 276 272 268 264 260 257 254 252 251 250 250 250 250 250 251 252
311 311 311 311 310 310 310 310 310 310 309 309 309 309 310 310 311 312 314 315 316 316 317 318 319 320 320 321 324 325 325 322 319 317 316 315 315 315 314 311 309 308 308 308 309 308 308 309 310 312 312 310 306 301 297 292 287 284 280 278 276 276 276 277 278 279 280 281 281 280 277 273 268 263 258 255 253 251 251 250 250 250 251 251 252 253
310 310 310 309 309 309 309 309 309 309 309 308 308 309 309 310 312 313 315 316 317 317 318 318 318 319 320 321 323 324 323 321 319 316 315 313 313 313 312 310 309 308 308 309 309 309 308 309 311 312 311 309 306 302 298 294 290 286 282 279 277 276 276 277 277 278 279 280 280 280 278 274 268 263 258 254 252 251 251 251 251 251 252 252 254 255
309 309 309 308 308 307 308 308 308 308 308 308 308 309 310 311 313 315 316 317 317 317 317 317 317 318 318 319 321 322 321 319 317 315 314 312 311 311 311 309 308 308 308 309 309 309 309 309 311 312 311 309 307 304 301 298 294 290 285 282 279 277 276 276 276 277 278 279 280 279 278 275 270 264 259 255 253 252 252 252 252 252 253 254 255 257
308 308 308 307 307 307 307 307 308 308 308 308 309 310 310 312 313 314 316 317 317 316 316 316 316 317 317 318 318 319 319 318 316 314 312 311 309 309 309 308 308 307 308 309 309 309 309 309 311 312 312 310 308 306 304 301 298 294 289 284 280 278 276 275 275 276 277 278 279 279 278 275 271 266 261 257 255 254 253 253 253 254 255 256 258 259
307 307 307 307 307 307 307 308 308 309 310 310 310 310 311 311 312 314 315 316 316 315 314 314 314 315 315 315 315 316 317 317 316 314 312 309 308 308 308 308 307 307 307 308 309 309 308 309 310 312 312 312 310 308 306 304 301 297 293 287 282 278 276 274 274 274 275 276 277 277 277 276 273 269 264 260 258 256 256 256 256 257 258 259 261 262
307 308 307 307 307 307 308 309 310 311 311 311 311 310 310 311 311 312 314 314 314 313 312 312 312 313 314 314 314 316 318 318 317 315 311 308 307 307 308 308 307 307 307 308 308 308 308 309 310 312 313 313 311 309 307 305 302 299 294 289 284 280 276 274 273 272 273 274 275 276 276 276 274 271 267 264 261 259 258 258 259 260 261 262 263 264
307 308 308 308 308 308 309 310 311 311 311 310 309 309 308 309 309 310 312 312 311 311 310 311 311 312 313 314 315 316 319 320 318 315 311 308 306 306 307 308 307 307 307 308 308 309 309 309 311 312 313 312 311 310 308 305 303 300 296 292 288 283 279 275 273 272 272 272 273 274 275 275 275 273 270 267 264 262 261 261 261 262 263 264 264 265
308 308 308 309 309 309 309 309 310 309 308 307 307 306 307 307 309 310 311 312 311 310 311 311 312 313 314 315 315 317 320 321 320 315 310 307 307 307 308 308 308 308 309 309 309 310 310 310 311 312 312 312 311 310 309 307 305 302 300 297 293 288 283 278 275 272 271 271 271 272 273 274 274 273 272 269 267 265 263 263 263 263 264 265 265 265
308 308 308 309 308 308 308 308 308 307 306 306 305 305 306 308 309 311 312 312 311 311 311 312 313 313 314 315 316 318 321 323 321 317 311 309 308 309 309 309 310 311 311 310 309 309 310 311 311 312 312 311 311 311 311 310 308 305 302 300 297 294 288 282 277 273 270 270 269 270 271 272 272 272 272 270 269 267 266 265 265 265 265 265 266 266
308 308 308 307 307 306 306 306 306 306 305 305 305 306 307 308 310 311 312 312 312 312 312 312 313 314 314 315 316 318 321 325 323 318 313 311 310 310 310 311 311 312 313 311 310 308 309 310 312 313 313 312 312 312 313 312 310 307 304 301 300 297 293 286 280 274 271 268 267 267 268 269 270 270 271 270 269 268 268 267 267 266 266 266 266 267
306 306 306 305 305 304 304 304 305 305 305 305 306 306 307 309 310 311 312 312 311 311 312 312 313 314 315 315 316 319 322 327 326 320 315 313 311 311 311 311 312 314 314 314 312 310 309 310 312 313 313 313 313 313 314 314 313 310 307 305 303 301 298 292 284 277 272 269 266 265 265 266 266 267 268 269 269 269 268 268 268 268 268 267 268 268
306 306 305 304 304 304 304 304 304 305 305 306 306 307 308 309 310 311 311 311 310 311 311 312 313 314 315 316 317 319 323 328 326 321 316 313 312 311 312 312 313 314 316 316 315 313 312 311 311 313 313 313 313 314 316 317 317 316 314 311 308 306 303 298 291 283 276 271 267 264 263 263 263 264 265 266 267 267 268 268 268 268 269 269 269 269
308 307 307 306 305 305 305 305 305 306 306 307 308 308 309 310 310 310 310 310 310 310 311 312 313 314 315 316 318 320 324 327 326 322 317 314 313 312 313 313 314 315 316 316 315 314 313 312 312 313 313 314 315 317 318 320 321 320 319 317 314 311 308 304 298 290 282 275 269 265 263 262 262 262 263 264 265 266 266 267 268 268 269 269 270 270
310 310 309 308 307 307 307 307 307 308 308 309 310 310 310 310 310 309 309 309 309 310 311 312 313 315 316 317 318 320 324 327 326 322 318 315 314 313 314 314 315 315 315 315 314 313 313 313 313 314 315 316 317 319 321 322 322 322 321 320 318 315 311 308 302 296 288 281 274 268 264 262 261 261 261 262 263 264 265 266 267 268 269 270 270 271
311 311 310 309 309 309 310 310 310 311 311 311 311 311 311 310 310 309 309 308 309 310 311 312 313 315 316 317 319 321 324 327 326 322 318 316 314 314 314 314 315 315 315 314 314 313 313 313 314 315 316 317 318 320 321 322 322 322 322 322 320 317 314 311 306 300 293 286 279 273 267 263 261 260 260 261 262 263 263 264 265 267 268 269 270 271
312 312 311 311 312 312 312 313 313 313 313 313 313 312 311 310 310 309 308 308 309 309 310 312 313 315 317 318 320 321 324 326 325 322 319 316 315 314 313 314 314 314 314 314 314 314 314 314 315 316 317 317 318 320 321 321 321 321 322 322 321 318 316 313 309 304 298 292 285 279 272 267 263 261 260 260 260 261 262 263 264 265 266 267 269 270
313 313 313 314 314 314 315 315 315 315 314 314 313 312 311 311 310 309 309 309 309 309 310 311 313 315 317 319 320 322 323 324 323 321 319 316 314 313 313 313 313 314 314 314 314 314 314 315 315 316 316 317 317 318 320 320 320 321 321 321 320 318 316 314 310 306 301 296 290 284 277 271 267 264 261 260 260 260 260 261 262 263 264 265 267 268
316 316 316 316 316 316 317 317 316 316 315 314 314 313 312 311 310 310 309 309 309 310 310 311 313 315 318 320 321 322 322 323 322 320 318 315 314 312 312 312 313 313 313 313 313 314 314 314 314 315 315 316 317 317 318 319 320 320 321 321 320 318 316 314 311 307 303 299 294 288 281 276 271 266 263 261 259 259 259 259 260 261 262 263 264 266
318 318 318 317 318 318 318 318 317 317 316 315 314 313 312 311 311 310 310 310 311 311 312 313 314 316 319 321 321 322 321 321 320 319 317 315 313 312 312 312 312 312 312 312 312 312 312 313 313 314 314 315 315 316 317 317 319 320 320 320 319 318 317 315 312 308 305 301 296 291 285 280 275 270 266 263 261 259 258 258 259 260 261 262 263 264
319 319 318 318 318 318 319 318 318 318 317 316 315 314 313 312 311 311 311 312 313 313 314 315 317 318 321 322 322 321 321 320 318 317 316 315 313 312 312 311 311 311 311 311 311 311 311 311 312 313 313 314 314 314 315 316 318 319 320 319 318 318 317 315 313 310 306 302 298 294 289 284 279 275 271 267 264 262 260 259 259 259 261 262 263 264
319 319 319 319 319 319 319 319 318 318 318 317 316 314 313 312 312 312 313 314 316 316 317 317 318 320 321 323 323 322 320 319 317 316 315 314 313 312 311 311 310 311 311 311 311 311 311 311 311 311 312 313 313 313 314 316 318 320 321 320 319 318 317 316 313 309 306 302 299 295 291 287 283 280 276 272 269 266 264 262 261 261 262 263 265 266
319 320 320 320 320 319 319 319 319 319 318 317 316 315 314 313 314 315 316 318 319 319 319 319 319 320 321 323 323 323 321 319 318 316 315 314 313 312 311 311 310 311 311 311 311 311 311 311 311 311 312 312 312 312 313 316 319 321 322 321 319 317 316 314 312 309 305 302 299 296 293 290 286 283 279 275 273 270 268 267 266 265 265 266 267 268
320 320 320 320 319 319 319 319 319 319 319 318 317 316 316 317 317 318 319 320 321 321 321 321 321 322 323 324 325 324 322 320 319 318 316 315 314 313 312 312 311 312 312 312 312 312 312 311 311 312 312 313 313 313 314 317 320 322 322 320 318 315 313 311 310 307 304 301 299 297 295 292 289 285 282 279 276 273 272 271 270 270 269 269 269 269
320 320 320 320 319 319 319 319 320 320 321 320 320 320 320 321 321 322 322 323 323 323 323 323 324 324 325 326 326 325 323 322 321 320 319 317 316 315 314 313 313 313 313 313 313 312 312 312 312 313 313 314 314 314 315 318 320 322 322 319 316 313 310 309 308 306 303 301 299 297 296 293 291 288 284 281 278 276 274 273 272 271 271 270 269 268
320 320 320 320 320 320 320 321 322 323 324 324 324 324 325 324 324 324 324 324 324 324 325 325 325 325 325 326 326 325 324 324 323 322 321 319 318 316 315 315 315 315 314 314 313 313 313 313 313 314 314 314 314 315 316 318 320 320 319 316 313 310 309 308 307 305 302 300 299 298 298 296 294 290 286 283 280 278 276 274 272 270 269 268 267 266
320 320 319 319 320 320 321 322 325 327 328 328 328 328 328 327 326 325 325 324 324 325 325 326 325 325 325 326 326 325 324 324 324 324 322 321 319 318 317 317 316 316 315 315 314 313 313 314 314 315 315 314 314 315 317 318 318 317 316 313 310 307 305 305 305 304 304 302 302 302 302 301 298 294 290 285 281 278 276 274 272 269 267 266 266 266
320 319 319 320 321 322 323 326 328 329 330 331 331 331 330 328 327 326 325 325 325 326 326 326 326 326 326 326 326 325 325 325 325 325 324 322 320 319 318 318 317 317 316 315 314 314 313 314 314 315 315 315 314 315 317 318 317 316 314 312 310 307 304 304 305 307 308 308 308 308 308 306 303 300 295 290 284 279 277 276 275 273 271 269 268 268
320 320 321 322 324 326 328 329 330 331 332 333 333 332 331 330 328 327 327 327 327 327 327 327 327 326 326 326 326 325 324 324 325 325 324 323 322 321 320 319 319 318 317 316 315 314 313 314 314 315 315 314 314 315 316 317 317 317 316 314 313 311 310 310 312 313 314 314 314 314 313 311 308 304 300 294 289 284 281 280 279 278 277 275 274 273
323 324 325 327 329 331 332 332 333 333 334 334 335 334 333 332 330 329 329 328 328 328 328 327 327 327 326 326 325 325 324 324 324 324 324 323 323 322 322 321 320 319 317 316 314 314 313 313 314 315 315 315 316 317 317 318 319 320 320 319 318 317 316 317 318 320 319 318 318 317 317 315 313 310 305 300 295 290 287 284 283 283 282 281 279 278
328 329 331 332 334 335 336 336 336 336 337 337 337 336 335 334 333 331 330 329 329 328 328 328 327 327 326 326 325 324 324 323 323 324 324 323 323 323 323 322 321 320 318 316 315 314 314 315 315 316 317 319 320 322 323 324 326 327 326 325 324 323 322 322 322 322 322 320 319 318 317 316 315 312 309 304 300 295 291 288 286 286 285 284 283 282
333 335 336 337 338 339 339 340 340 340 339 339 339 338 338 336 335 333 331 330 329 329 328 328 327 327 326 326 325 325 324 324 324 324 324 324 323 323 323 323 322 321 320 318 318 318 319 319 320 321 323 326 328 328 329 331 332 332 331 330 328 326 324 323 323 323 322 321 320 319 318 316 315 313 310 307 303 299 295 292 290 289 289 288 285 284
338 339 339 340 341 342 343 343 343 342 342 341 340 340 339 338 336 334 332 331 330 329 329 328 328 327 326 326 326 325 325 325 325 325 325 324 324 324 324 324 324 323 323 322 323 324 325 326 326 327 331 336 336 334 333 334 335 334 332 330 328 326 324 323 322 322 321 320 319 319 318 316 315 313 311 309 306 303 299 297 295 294 293 291 289 286
Height
2996 2994 2992 2990 2988 2986 2984 2982 2980 2977 2975 2973 2971 2969 2967 2965 2962 2960 2958 2956 2954 2952 2950 2948 2947 2946 2945 2943 2942 2940 2938 2936 2934 2933 2931 2929 2927 2926 2924 2923 2921 2920 2919 2917 2917 2915 2914 2913 2912 2911 2910 2909 2907 2907 2905 2904 2904 2903 2902 2902 2901 2900 2900 2899 2898 2898 2897 2896 2896 2895 2894 2893 2893 2892 2892 2892 2892 2892 2892 2892 2892 2892 2892 2892 2892 2893
2992 2990 2988 2986 2984 2981 2979 2977 2975 2973 2971 2968 2966 2965 2963 2961 2958 2956 2954 2952 2950 2948 2947 2945 2943 2942 2941 2939 2938 2937 2934 2932 2931 2929 2927 2926 2924 2922 2921 2920 2918 2917 2916 2915 2914 2913 2912 2910 2909 2908 2907 2905 2904 2903 2902 2901 2900 2899 2899 2898 2897 2897 2896 2896 2895 2894 2893 2892 2892 2891 2891 2890 2889 2889 2889 2888 2888 2888 2888 2888 2888 2888 2888 2888 2888 2888
2988 2986 2984 2982 2979 2977 2975 2973 2971 2969 2967 2964 2962 2960 2958 2956 2954 2952 2950 2949 2947 2945 2943 2942 2940 2939 2937 2936 2934 2933 2931 2929 2927 2926 2924 2923 2921 2920 2918 2917 2916 2915 2913 2912 2911 2910 2908 2907 2906 2904 2903 2902 2901 2900 2898 2897 2897 2896 2895 2894 2894 2893 2892 2892 2891 2890 2889 2889 2888 2887 2887 2887 2886 2886 2886 2885 2885 2885 2885 2884 2884 2884 2884 2884 2884 2884
2984 2982 2979 2977 2975 2973 2971 2969 2967 2964 2962 2960 2958 2956 2954 2952 2950 2948 2947 2945 2943 2942 2940 2938 2937 2935 2934 2932 2931 2929 2928 2926 2924 2923 2921 2920 2918 2917 2916 2914 2913 2912 2910 2909 2908 2907 2905 2904 2902 2901 2900 2899 2897 2896 2895 2894 2893 2892 2891 2891 2890 2889 2888 2888 2887 2886 2886 2885 2884 2884 2883 2883 2883 2882 2882 2882 2882 2882 2881 2881 2881 2880 2880 2880 2880 2880
2980 2977 2975 2973 2971 2969 2967 2965 2963 2961 2958 2956 2954 2952 2950 2948 2946 2944 2943 2941 2940 2938 2937 2935 2934 2932 2930 2929 2927 2926 2925 2923 2921 2920 2918 2917 2915 2914 2913 2912 2910 2909 2907 2906 2905 2903 2902 2901 2899 2898 2897 2895 2894 2893 2892 2891 2890 2888 2888 2887 2886 2886 2885 2884 2883 2882 2882 2881 2881 2881 2880 2880 2880 2879 2879 2879 2878 2878 2878 2877 2877 2877 2877 2876 2876 2876
2976 2974 2971 2969 2967 2965 2963 2961 2959 2957 2955 2952 2950 2948 2947 2945 2943 2941 2939 2937 2936 2935 2933 2932 2930 2929 2927 2926 2924 2923 2922 2920 2918 2917 2915 2914 2912 2911 2910 2909 2907 2906 2905 2903 2902 2900 2899 2897 2896 2895 2893 2892 2891 2889 2888 2887 2886 2885 2884 2883 2883 2882 2881 2880 2880 2879 2878 2878 2877 2877 2877 2877 2877 2876 2876 2875 2875 2874 2874 2874 2873 2873 2873 2872 2873 2873
2972 2970 2968 2966 2963 2961 2959 2958 2956 2953 2951 2948 2946 2944 2943 2942 2940 2938 2936 2934 2932 2931 2930 2928 2927 2926 2925 2923 2921 2920 2918 2917 2916 2914 2912 2911 2910 2909 2907 2906 2905 2903 2902 2900 2899 2897 2896 2895 2893 2892 2890 2889 2887 2886 2885 2884 2883 2882 2881 2880 2879 2878 2877 2877 2876 2875 2875 2875 2874 2874 2874 2873 2873 2873 2872 2872 2871 2871 2870 2870 2870 2869 2869 2869 2869 2869
2969 2967 2965 2963 2960 2958 2956 2954 2952 2950 2947 2945 2942 2940 2939 2937 2936 2935 2933 2932 2930 2928 2927 2925 2924 2923 2922 2921 2919 2917 2915 2914 2912 2911 2910 2908 2907 2906 2905 2903 2902 2900 2899 2897 2896 2895 2893 2892 2890 2888 2887 2886 2884 2883 2882 2881 2880 2878 2877 2877 2876 2875 2874 2873 2872 2872 2872 2872 2871 2871 2871 2870 2870 2869 2868 2868 2867 2867 2867 2867 2866 2866 2866 2866 2866 2866
2965 2963 2961 2959 2957 2955 2952 2950 2948 2946 2944 2942 2939 2937 2935 2933 2932 2930 2930 2929 2927 2926 2924 2922 2920 2919 2919 2918 2917 2915 2912 2911 2909 2908 2907 2906 2904 2903 2902 2900 2899 2897 2896 2895 2893 2892 2891 2889 2887 2886 2884 2882 2881 2880 2879 2877 2877 2875 2874 2873 2872 2871 2870 2870 2869 2869 2868 2868 2868 2867 2867 2867 2866 2866 2865 2865 2864 2864 2863 2863 2863 2863 2862 2862 2862 2862
2961 2959 2957 2955 2952 2951 2949 2947 2944 2942 2940 2938 2936 2933 2932 2931 2929 2927 2925 2925 2924 2923 2922 2919 2918 2917 2915 2914 2914 2912 2911 2908 2907 2905 2904 2903 2902 2900 2898 2897 2896 2894 2893 2892 2891 2889 2888 2886 2884 2883 2881 2880 2878 2877 2876 2875 2873 2872 2871 2870 2869 2868 2867 2866 2866 2865 2865 2865 2865 2864 2864 2863 2863 2862 2862 2862 2861 2861 2860 2860 2860 2859 2859 2859 2859 2859
2957 2955 2953 2951 2949 2947 2945 2943 2941 2938 2937 2935 2932 2930 2928 2927 2926 2924 2922 2920 2920 2920 2918 2917 2915 2914 2913 2911 2910 2909 2907 2906 2904 2902 2902 2901 2899 2897 2896 2894 2893 2892 2890 2889 2888 2887 2885 2883 2882 2880 2879 2877 2876 2874 2873 2872 2870 2869 2868 2867 2865 2864 2863 2863 2862 2862 2862 2861 2861 2861 2860 2860 2859 2859 2858 2858 2858 2857 2857 2857 2856 2856 2856 2856 2856 2856
2953 2951 2949 2947 2945 2943 2941 2939 2937 2935 2933 2932 2929 2927 2925 2923 2923 2922 2920 2918 2917 2916 2915 2913 2912 2912 2911 2909 2907 2905 2904 2902 2901 2899 2898 2897 2896 2895 2893 2891 2890 2889 2887 2886 2885 2884 2882 2881 2879 2877 2876 2875 2873 2872 2870 2869 2867 2866 2865 2863 2862 2861 2860 2860 2859 2858 2858 2858 2857 2857 2857 2856 2856 2856 2855 2855 2854 2854 2854 2853 2853 2853 2852 2852 2852 2852
2949 2947 2945 2943 2941 2940 2938 2936 2933 2931 2930 2928 2927 2925 2922 2921 2920 2919 2917 2915 2914 2913 2912 2910 2909 2908 2908 2907 2905 2902 2900 2898 2897 2896 2894 2893 2892 2891 2889 2888 2887 2886 2884 2883 2882 2881 2880 2878 2877 2875 2874 2872 2871 2869 2868 2866 2865 2863 2862 2861 2859 2858 2857 2856 2856 2855 2855 2854 2854 2854 2853 2853 2852 2852 2852 2851 2851 2851 2850 2850 2850 2850 2849 2849 2849 2849
2946 2943 2942 2940 2938 2937 2935 2933 2931 2929 2927 2926 2924 2922 2920 2918 2917 2916 2915 2913 2912 2911 2910 2908 2906 2905 2905 2904 2903 2900 2897 2895 2893 2892 2891 2890 2889 2888 2886 2884 2883 2882 2881 2880 2879 2878 2877 2875 2874 2872 2872 2870 2868 2867 2865 2864 2862 2861 2859 2858 2857 2855 2854 2853 2852 2852 2852 2851 2851 2850 2850 2849 2849 2849 2848 2848 2848 2847 2847 2847 2847 2847 2847 2847 2847 2847
2942 2941 2939 2937 2935 2934 2932 2930 2928 2926 2924 2923 2921 2920 2918 2916 2915 2914 2912 2911 2909 2908 2907 2905 2904 2903 2902 2902 2901 2898 2895 2892 2890 2889 2888 2887 2887 2886 2884 2882 2880 2879 2879 2877 2877 2876 2874 2873 2871 2870 2869 2867 2866 2864 2862 2861 2859 2858 2857 2855 2854 2852 2851 2850 2849 2848 2848 2848 2847 2847 2847 2846 2846 2845 2845 2845 2845 2844 2844 2844 2844 2844 2844 2844 2844 2844
2940 2938 2936 2934 2932 2931 2929 2927 2926 2924 2922 2920 2918 2917 2915 2914 2912 2911 2910 2908 2907 2906 2904 2903 2901 2900 2899 2899 2898 2896 2893 2889 2887 2886 2885 2884 2884 2883 2882 2879 2877 2877 2876 2875 2874 2873 2872 2870 2869 2868 2867 2865 2863 2862 2860 2858 2857 2855 2854 2852 2851 2850 2848 2847 2846 2845 2845 2845 2844 2844 2844 2843 2843 2842 2842 2842 2842 2842 2841 2841 2841 2841 2841 2841 2841 2841
2937 2935 2933 2932 2930 2928 2926 2925 2923 2921 2920 2918 2916 2915 2913 2912 2911 2909 2907 2906 2905 2903 2902 2901 2899 2897 2895 2895 2895 2894 2892 2888 2885 2883 2882 2881 2881 2880 2879 2877 2874 2873 2873 2872 2872 2870 2869 2868 2867 2866 2864 2862 2861 2859 2857 2856 2854 2852 2851 2850 2848 2847 2846 2844 2843 2842 2842 2842 2841 2841 2841 2840 2840 2839 2839 2839 2839 2839 2839 2839 2839 2839 2839 2839 2839 2839
2934 2933 2931 2929 2927 2925 2924 2923 2921 2919 2917 2915 2914 2912 2911 2910 2909 2907 2906 2904 2903 2901 2899 2898 2897 2895 2892 2891 2891 2891 2889 2886 2882 2880 2879 2878 2877 2877 2876 2874 2872 2871 2870 2870 2869 2868 2867 2865 2864 2863 2862 2860 2858 2856 2855 2853 2851 2850 2849 2847 2846 2844 2843 2842 2840 2839 2839 2838 2838 2838 2838 2837 2837 2837 2836 2836 2836 2836 2836 2836 2836 2836 2836 2836 2837 2837
2932 2930 2929 2927 2924 2922 2921 2921 2919 2917 2915 2913 2912 2910 2909 2907 2907 2905 2904 2902 2901 2899 2897 2895 2894 2892 2891 2889 2888 2888 2887 2883 2880 2877 2876 2875 2874 2874 2873 2871 2869 2868 2867 2867 2866 2865 2864 2863 2862 2861 2859 2858 2856 2854 2852 2851 2849 2847 2846 2845 2843 2842 2841 2839 2838 2837 2836 2836 2835 2835 2835 2835 2834 2834 2834 2834 2833 2833 2833 2834 2833 2834 2834 2834 2834 2834
2929 2927 2927 2925 2922 2920 2918 2918 2917 2916 2913 2911 2909 2908 2907 2905 2904 2903 2902 2900 2899 2897 2895 2894 2892 2890 2889 2887 2886 2886 2884 2881 2878 2875 2873 2872 2872 2871 2870 2868 2866 2865 2865 2864 2863 2862 2861 2860 2859 2859 2857 2856 2854 2852 2850 2848 2847 2845 2844 2842 2841 2840 2838 2837 2835 2834 2833 2833 2833 2832 2832 2832 2832 2832 2831 2831 2831 2831 2831 2831 2831 2831 2832 2832 2832 2832
2926 2925 2924 2923 2921 2919 2917 2916 2915 2914 2912 2910 2907 2906 2904 2903 2902 2901 2899 2898 2896 2895 2893 2892 2890 2888 2887 2885 2884 2883 2882 2879 2876 2873 2871 2870 2869 2869 2868 2866 2863 2862 2862 2861 2861 2860 2858 2857 2857 2856 2855 2853 2852 2850 2848 2846 2845 2843 2842 2840 2839 2837 2836 2834 2833 2832 2831 2830 2830 2830 2830 2829 2829 2829 2829 2829 2829 2829 2829 2829 2829 2829 2829 2829 2829 2829
2925 2923 2922 2920 2919 2917 2915 2914 2913 2912 2910 2908 2906 2904 2902 2901 2899 2898 2897 2896 2894 2892 2891 2889 2888 2887 2885 2883 2882 2882 2881 2878 2875 2872 2869 2867 2866 2866 2865 2863 2861 2860 2859 2858 2857 2857 2856 2855 2854 2853 2852 2851 2849 2848 2846 2844 2843 2841 2840 2838 2836 2835 2833 2832 2831 2829 2828 2828 2827 2827 2827 2827 2827 2827 2826 2826 2826 2826 2826 2826 2826 2826 2827 2826 2826 2826
2923 2921 2920 2918 2917 2915 2914 2912 2911 2910 2908 2906 2904 2902 2901 2899 2898 2896 2895 2893 2892 2890 2888 2887 2886 2885 2884 2882 2881 2880 2879 2877 2874 2870 2867 2864 2863 2862 2862 2861 2858 2857 2856 2855 2854 2853 2852 2852 2851 2850 2849 2848 2847 2845 2844 2842 2841 2839 2837 2836 2834 2832 2831 2829 2828 2827 2826 2825 2825 2824 2824 2824 2824 2824 2824 2824 2824 2824 2824 2824 2824 2824 2823 2823 2823 2823
2921 2919 2918 2916 2915 2913 2912 2910 2909 2907 2906 2904 2903 2901 2899 2898 2896 2894 2893 2891 2890 2888 2886 2885 2883 2882 2882 2881 2880 2878 2877 2876 2872 2868 2865 2862 2860 2860 2859 2858 2856 2854 2853 2853 2852 2850 2849 2849 2848 2847 2847 2846 2844 2843 2842 2840 2838 2837 2835 2833 2831 2830 2828 2827 2825 2824 2823 2823 2822 2822 2821 2821 2821 2821 2821 2821 2821 2821 2821 2821 2821 2821 2820 2820 2820 2820
2918 2917 2915 2914 2912 2911 2909 2908 2907 2905 2904 2902 2900 2898 2896 2895 2894 2892 2892 2890 2888 2886 2884 2883 2882 2880 2879 2878 2877 2876 2875 2874 2871 2867 2863 2860 2858 2857 2857 2856 2853 2851 2850 2850 2849 2848 2846 2846 2845 2845 2844 2843 2842 2840 2839 2837 2836 2834 2832 2831 2829 2827 2826 2824 2823 2822 2821 2820 2819 2819 2819 2818 2818 2818 2818 2818 2818 2818 2818 2818 2818 2817 2817 2817 2817 2817
2917 2915 2913 2912 2910 2909 2907 2906 2905 2904 2902 2900 2898 2896 2894 2893 2892 2891 2890 2889 2887 2885 2882 2881 2879 2878 2877 2875 2874 2873 2872 2871 2869 2865 2861 2858 2856 2855 2855 2853 2851 2849 2847 2847 2846 2845 2843 2842 2842 2842 2841 2840 2839 2838 2837 2835 2833 2832 2830 2828 2826 2825 2823 2822 2820 2819 2818 2817 2817 2816 2816 2816 2816 2815 2815 2815 2815 2815 2815 2815 2815 2815 2814 2814 2813 2813
2915 2913 2912 2910 2908 2907 2906 2904 2903 2902 2900 2899 2897 2895 2893 2891 2890 2889 2888 2887 2885 2882 2881 2878 2877 2875 2874 2872 2871 2870 2870 2869 2867 2863 2859 2856 2854 2852 2852 2851 2849 2847 2845 2843 2843 2842 2840 2839 2838 2838 2837 2837 2836 2835 2833 2832 2831 2829 2827 2826 2824 2822 2821 2819 2818 2817 2816 2815 2814 2814 2813 2813 2813 2813 2812 2812 2812 2812 2812 2812 2812 2811 2811 2810 2810 2810
2913 2911 2910 2908 2907 2905 2904 2903 2902 2900 2899 2897 2896 2894 2892 2890 2888 2887 2885 2884 2882 2880 2878 2876 2874 2872 2871 2869 2868 2868 2867 2867 2864 2861 2857 2854 2852 2850 2849 2848 2846 2844 2842 2840 2839 2839 2838 2837 2836 2835 2834 2833 2832 2831 2830 2829 2827 2826 2825 2823 2822 2820 2818 2817 2816 2814 2813 2812 2812 2811 2811 2811 2810 2810 2810 2809 2809 2809 2809 2809 2808 2808 2807 2807 2806 2806
2911 2910 2908 2907 2905 2904 2902 2901 2900 2899 2897 2896 2894 2892 2890 2888 2886 2885 2883 2882 2880 2878 2876 2874 2872 2871 2868 2867 2866 2865 2865 2865 2862 2858 2855 2852 2850 2848 2847 2846 2844 2842 2840 2837 2835 2835 2835 2834 2833 2831 2830 2829 2829 2828 2827 2826 2825 2823 2822 2820 2819 2817 2816 2814 2813 2812 2811 2810 2809 2809 2808 2808 2807 2807 2807 2807 2806 2806 2806 2806 2805 2805 2804 2803 2803 2803
2910 2909 2907 2906 2904 2902 2901 2899 2898 2897 2895 2894 2892 2890 2888 2887 2885 2883 2881 2879 2878 2876 2874 2872 2871 2869 2867 2865 2863 2862 2863 2862 2860 2857 2853 2850 2848 2846 2845 2843 2842 2840 2838 2835 2832 2830 2830 2830 2830 2828 2827 2826 2825 2825 2824 2823 2822 2820 2818 2817 2816 2815 2813 2812 2810 2809 2808 2807 2807 2806 2806 2805 2805 2804 2804 2804 2803 2803 2803 2802 2802 2801 2800 2800 2800 2799
2908 2907 2906 2904 2902 2901 2899 2898 2896 2895 2894 2892 2891 2889 2887 2885 2883 2882 2880 2878 2876 2874 2872 2871 2869 2867 2865 2863 2861 2859 2859 2859 2858 2855 2851 2848 2846 2844 2843 2841 2839 2838 2837 2834 2830 2827 2824 2824 2825 2825 2824 2822 2822 2821 2821 2819 2818 2817 2815 2814 2813 2812 2811 2809 2808 2807 2806 2805 2804 2803 2803 2802 2802 2802 2801 2801 2800 2800 2800 2799 2799 2798 2797 2797 2796 2796
2906 2905 2903 2902 2901 2899 2898 2896 2895 2893 2892 2890 2889 2887 2886 2884 2882 2880 2878 2877 2875 2873 2871 2869 2867 2866 2864 2862 2860 2858 2857 2857 2855 2853 2850 2847 2844 2842 2841 2839 2837 2835 2835 2833 2830 2827 2822 2819 2819 2820 2820 2819 2818 2817 2817 2816 2815 2813 2812 2811 2810 2809 2808 2807 2805 2804 2803 2802 2802 2801 2800 2800 2799 2799 2798 2798 2797 2797 2797 2797 2796 2795 2794 2793 2793 2792
2904 2902 2901 2900 2898 2897 2896 2894 2893 2891 2890 2888 2887 2886 2884 2882 2881 2879 2877 2875 2873 2871 2869 2867 2865 2863 2862 2860 2858 2857 2856 2854 2853 2851 2848 2845 2842 2840 2838 2837 2835 2833 2832 2831 2829 2826 2823 2819 2816 2815 2815 2814 2814 2813 2813 2812 2812 2811 2809 2808 2807 2806 2805 2804 2802 2801 2800 2800 2799 2798 2798 2797 2797 2796 2796 2795 2795 2794 2794 2793 2793 2792 2791 2790 2789 2789
2902 2900 2899 2897 2896 2895 2893 2892 2891 2889 2888 2887 2885 2884 2882 2881 2879 2877 2876 2874 2872 2870 2868 2866 2864 2862 2860 2858 2856 2855 2854 2853 2851 2849 2846 2843 2841 2838 2836 2835 2833 2831 2829 2827 2826 2824 2821 2818 2815 2813 2811 2810 2810 2810 2810 2809 2808 2808 2807 2806 2804 2802 2802 2801 2799 2798 2797 2797 2796 2796 2795 2794 2794 2793 2793 2792 2792 2792 2791 2791 2790 2789 2789 2787 2786 2785
2899 2898 2897 2895 2894 2893 2892 2890 2889 2887 2886 2885 2883 2882 2881 2879 2877 2876 2874 2872 2870 2868 2866 2864 2862 2861 2858 2856 2854 2852 2852 2851 2850 2847 2845 2842 2840 2837 2835 2833 2831 2830 2827 2825 2823 2821 2818 2816 2814 2812 2809 2807 2806 2807 2807 2806 2805 2805 2804 2803 2802 2800 2799 2797 2796 2795 2794 2794 2793 2792 2792 2792 2791 2790 2790 2790 2789 2789 2788 2788 2787 2787 2786 2785 2783 2782
2897 2896 2894 2893 2892 2891 2889 2888 2887 2886 2884 2883 2882 2880 2879 2877 2876 2874 2872 2870 2869 2867 2865 2863 2861 2859 2857 2855 2853 2851 2849 2848 2847 2846 2844 2842 2839 2836 2833 2831 2830 2828 2826 2823 2821 2819 2816 2813 2812 2810 2808 2805 2803 2802 2803 2803 2802 2802 2801 2800 2799 2798 2797 2795 2794 2792 2792 2791 2790 2790 2789 2788 2788 2787 2787 2787 2786 2786 2785 2785 2784 2784 2783 2782 2781 2780
2895 2894 2892 2891 2890 2888 2887 2886 2885 2884 2882 2881 2880 2878 2877 2875 2874 2872 2870 2869 2867 2865 2863 2862 2860 2858 2857 2854 2852 2850 2848 2847 2845 2844 2842 2840 2838 2835 2832 2830 2828 2827 2825 2822 2819 2817 2815 2812 2809 2807 2806 2804 2802 2800 2799 2798 2798 2798 2798 2797 2796 2795 2794 2793 2792 2790 2789 2788 2787 2787 2786 2786 2785 2784 2784 2784 2783 2783 2782 2782 2782 2781 2780 2779 2778 2777
2893 2892 2891 2889 2888 2887 2886 2884 2883 2882 2881 2879 2878 2877 2875 2873 2872 2870 2868 2867 2865 2863 2862 2860 2858 2857 2855 2854 2852 2849 2847 2846 2844 2842 2841 2839 2837 2834 2831 2828 2826 2825 2824 2822 2819 2816 2813 2811 2808 2805 2803 2802 2800 2799 2797 2796 2795 2794 2794 2793 2793 2792 2791 2790 2789 2787 2786 2785 2784 2784 2783 2782 2782 2782 2781 2781 2780 2780 2779 2779 2779 2778 2777 2776 2775 2774
2892 2890 2889 2887 2886 2885 2884 2882 2881 2880 2879 2877 2876 2874 2873 2871 2870 2868 2867 2865 2863 2862 2860 2858 2856 2855 2854 2852 2851 2849 2847 2845 2843 2841 2839 2837 2835 2833 2830 2827 2825 2823 2822 2820 2818 2815 2813 2810 2807 2804 2802 2799 2797 2796 2795 2794 2793 2792 2791 2789 2789 2789 2788 2787 2786 2785 2783 2782 2782 2781 2780 2780 2779 2778 2778 2777 2777 2777 2776 2776 2776 2775 2774 2773 2772 2772
2890 2889 2887 2886 2885 2883 2882 2881 2879 2878 2877 2875 2874 2872 2871 2869 2868 2867 2865 2863 2862 2860 2858 2856 2855 2853 2852 2851 2850 2848 2846 2844 2842 2840 2838 2836 2833 2831 2829 2826 2823 2821 2819 2818 2816 2814 2812 2809 2806 2803 2801 2798 2796 2793 2792 2792 2791 2790 2788 2786 2785 2784 2785 2784 2783 2782 2781 2780 2779 2778 2777 2777 2776 2775 2775 2774 2774 2773 2773 2772 2772 2772 2771 2770 2769 2768
2888 2887 2886 2885 2883 2882 2881 2879 2878 2876 2875 2873 2872 2870 2869 2867 2866 2864 2863 2862 2860 2858 2857 2854 2853 2852 2851 2850 2848 2847 2845 2843 2841 2839 2837 2834 2832 2830 2827 2825 2822 2819 2817 2815 2813 2812 2810 2807 2805 2802 2800 2797 2794 2792 2790 2790 2789 2788 2787 2784 2782 2781 2781 2781 2781 2780 2778 2777 2777 2776 2774 2774 2773 2772 2772 2771 2771 2770 2770 2769 2768 2768 2768 2767 2766 2765
2887 2886 2884 2883 2882 2881 2879 2878 2877 2875 2873 2872 2870 2868 2867 2865 2863 2862 2861 2859 2858 2856 2854 2852 2851 2849 2848 2847 2847 2846 2844 2842 2840 2837 2835 2833 2830 2828 2825 2823 2821 2818 2816 2813 2811 2809 2807 2806 2803 2800 2798 2795 2792 2790 2787 2787 2787 2787 2785 2783 2781 2779 2778 2778 2778 2778 2776 2775 2774 2773 2772 2771 2770 2769 2768 2768 2767 2767 2767 2766 2765 2765 2764 2764 2763 2762
2885 2884 2883 2882 2881 2879 2878 2877 2875 2873 2872 2870 2869 2867 2865 2863 2861 2860 2858 2857 2855 2854 2852 2850 2848 2847 2845 2844 2843 2842 2842 2840 2838 2836 2833 2831 2828 2826 2823 2821 2819 2816 2814 2811 2809 2807 2805 2803 2801 2799 2796 2794 2791 2788 2786 2784 2784 2784 2783 2782 2780 2777 2775 2775 2775 2775 2774 2772 2772 2770 2769 2768 2767 2766 2765 2764 2764 2764 2763 2763 2763 2762 2762 2761 2760 2760
2884 2883 2882 2880 2879 2878 2876 2875 2873 2872 2871 2869 2867 2865 2864 2862 2860 2858 2856 2855 2853 2852 2850 2848 2846 2845 2843 2842 2840 2839 2838 2837 2836 2834 2832 2829 2827 2824 2822 2819 2817 2815 2812 2810 2807 2804 2802 2800 2798 2797 2794 2792 2789 2787 2785 2783 2782 2782 2781 2780 2778 2776 2774 2772 2772 2771 2771 2770 2769 2768 2767 2765 2764 2763 2762 2762 2761 2761 2760 2760 2760 2759 2759 2758 2757 2757
2882 2882 2880 2879 2877 2876 2875 2873 2872 2871 2869 2867 2866 2864 2862 2861 2859 2857 2855 2853 2852 2850 2848 2847 2844 2842 2841 2839 2838 2836 2835 2834 2833 2832 2830 2827 2825 2822 2820 2817 2815 2813 2811 2808 2806 2803 2800 2798 2796 2794 2792 2790 2788 2786 2784 2782 2781 2779 2779 2778 2776 2775 2773 2772 2770 2769 2767 2767 2766 2765 2764 2762 2761 2760 2759 2758 2758 2758 2757 2757 2757 2756 2756 2756 2755 2754
2881 2880 2879 2877 2876 2875 2873 2872 2870 2869 2868 2866 2865 2863 2861 2860 2858 2856 2854 2852 2850 2848 2847 2845 2843 2841 2839 2837 2835 2833 2832 2830 2829 2828 2827 2825 2823 2821 2818 2816 2813 2811 2809 2806 2804 2802 2799 2797 2794 2792 2789 2787 2786 2785 2783 2782 2780 2777 2776 2775 2773 2772 2771 2769 2768 2767 2765 2764 2762 2762 2761 2759 2758 2757 2756 2755 2755 2755 2755 2754 2754 2753 2753 2752 2752 2751
2880 2879 2877 2876 2875 2873 2872 2870 2869 2868 2867 2865 2864 2862 2860 2858 2857 2855 2853 2851 2849 2847 2845 2843 2842 2840 2837 2835 2833 2831 2829 2827 2826 2824 2823 2822 2820 2818 2816 2814 2812 2809 2807 2804 2802 2800 2797 2795 2793 2791 2788 2786 2783 2782 2782 2781 2779 2776 2774 2772 2771 2769 2768 2767 2766 2764 2763 2761 2760 2759 2758 2757 2755 2754 2753 2752 2752 2752 2752 2752 2751 2751 2750 2749 2748 2747
2879 2877 2876 2875 2873 2872 2871 2869 2868 2866 2865 2864 2862 2861 2859 2857 2856 2853 2852 2850 2848 2846 2844 2842 2840 2838 2836 2834 2832 2829 2827 2825 2823 2821 2819 2818 2816 2814 2813 2811 2809 2807 2804 2802 2800 2797 2795 2793 2792 2790 2787 2785 2782 2780 2778 2778 2777 2774 2772 2770 2768 2766 2764 2763 2762 2762 2760 2759 2757 2756 2755 2754 2752 2751 2750 2749 2748 2748 2749 2749 2749 2748 2747 2746 2745 2744
2877 2876 2875 2873 2872 2871 2869 2868 2867 2865 2864 2862 2861 2860 2858 2857 2855 2852 2850 2848 2846 2844 2842 2840 2838 2836 2834 2832 2830 2828 2825 2823 2821 2819 2817 2815 2812 2811 2809 2807 2805 2803 2801 2798 2797 2795 2793 2791 2790 2788 2787 2784 2781 2777 2775 2774 2773 2772 2769 2767 2765 2763 2762 2760 2759 2759 2757 2756 2755 2754 2753 2752 2750 2749 2747 2746 2745 2745 2746 2746 2746 2745 2744 2743 2742 2741
2876 2875 2873 2872 2871 2869 2868 2867 2865 2864 2862 2861 2860 2858 2857 2855 2853 2852 2849 2847 2845 2843 2841 2838 2836 2834 2832 2830 2827 2826 2823 2821 2818 2817 2814 2812 2810 2808 2806 2804 2802 2799 2796 2794 2792 2791 2789 2787 2787 2786 2785 2783 2780 2776 2773 2771 2769 2768 2767 2765 2763 2762 2760 2758 2757 2756 2755 2754 2752 2751 2750 2749 2748 2747 2746 2744 2743 2742 2742 2743 2743 2742 2742 2740 2739 2737
2875 2874 2872 2871 2869 2868 2867 2865 2864 2862 2861 2860 2858 2857 2855 2853 2852 2850 2848 2846 2843 2841 2839 2837 2835 2832 2830 2827 2825 2823 2821 2819 2816 2814 2812 2810 2808 2806 2803 2801 2799 2796 2793 2790 2788 2786 2784 2783 2782 2782 2782 2782 2780 2776 2773 2770 2767 2765 2764 2762 2762 2760 2758 2756 2755 2754 2752 2751 2750 2749 2748 2747 2746 2744 2743 2742 2740 2739 2738 2739 2739 2739 2739 2737 2736 2734